Dewpoint
55 53 47 45 35 26 22 18 19 20 21 25 26 26 27 28 31 32 45 46 52 52 58 59 60 62 63 63 65 65 65 65 66 67 66 66 66 66 66 66 66 66 66 67 67 67 68 68 69
50 43 44 41 29 24 18 20 18 20 25 25 26 29 25 27 37 39 41 43 50 51 54 56 58 58 60 62 62 62 63 63 64 64 64 63 62 62 63 63 63 63 63 64 64 64 64 65 66
46 41 40 34 28 20 14 16 17 25 25 25 25 28 27 30 36 39 39 44 49 50 53 55 56 56 57 58 57 58 60 60 61 62 60 59 60 60 60 60 59 59 60 61 62 62 61 61 63
41 37 34 22 17 16 13 14 20 24 24 25 25 24 27 33 34 37 36 43 47 49 52 54 54 53 53 53 53 53 54 54 57 55 52 51 53 52 52 52 52 51 52 53 58 58 57 57 58
37 35 28 23 18 13 15 16 18 22 23 23 24 23 26 31 34 32 31 39 46 47 49 50 51 51 51 51 50 50 49 49 50 49 47 46 46 46 46 46 46 46 46 46 49 48 48 49 52
32 27 22 19 19 17 17 18 18 19 21 23 23 23 26 32 31 29 27 31 40 46 47 47 49 49 49 48 48 47 46 46 45 45 44 43 43 43 43 45 45 45 45 45 45 46 45 46 46
32 31 26 24 19 16 18 19 18 19 20 23 24 22 27 31 31 30 25 24 30 37 42 43 44 45 45 44 44 45 45 44 42 41 40 40 37 38 40 40 43 43 42 44 44 44 45 44 43
30 24 20 20 18 18 19 19 20 20 19 24 25 22 23 29 29 27 23 21 24 30 33 34 38 41 40 40 42 42 42 41 38 37 36 35 35 32 37 37 39 40 40 41 40 41 41 40 40
34 24 20 22 19 19 20 19 21 21 20 23 25 25 25 29 26 24 22 22 22 26 27 31 31 31 36 37 40 40 38 36 36 36 32 34 32 30 32 35 36 36 36 36 37 37 37 36 38
31 27 25 21 19 18 19 19 20 20 19 20 22 25 25 27 24 23 22 21 22 23 23 26 29 29 30 24 34 35 33 34 33 34 32 32 32 30 32 34 35 35 34 33 33 33 33 35 36
28 24 22 21 21 20 19 19 20 20 20 21 20 22 24 24 23 23 24 24 23 24 23 23 27 28 27 21 32 32 33 32 33 33 32 32 32 32 31 32 33 33 32 32 30 32 33 33 34
25 26 26 24 22 22 21 21 21 20 20 22 22 24 25 24 22 22 24 25 24 24 23 22 24 25 27 30 31 31 31 31 32 31 28 30 31 30 29 30 30 30 29 28 29 30 30 30 31
26 26 25 24 25 26 26 24 23 22 23 22 22 22 25 25 23 23 24 26 26 24 23 20 21 24 28 28 29 29 30 30 30 30 26 27 28 26 27 28 28 27 26 26 27 27 27 27 29
27 27 26 24 24 26 25 25 25 24 25 24 24 23 23 25 25 24 24 25 27 25 23 21 21 23 27 28 26 28 27 28 28 29 25 23 25 23 24 25 25 25 25 25 26 25 25 25 27
25 22 22 22 24 23 24 23 23 24 24 22 22 23 23 23 24 24 25 24 26 26 23 20 20 23 24 25 26 27 26 25 27 28 25 22 22 21 21 23 23 25 24 24 23 24 24 24 25
22 22 18 19 20 25 23 13 21 22 22 22 22 22 22 24 24 24 25 25 25 25 21 20 18 23 22 23 25 25 22 23 24 25 24 21 20 20 21 21 22 23 24 23 23 23 23 24 25
20 17 19 19 23 24 23 17 17 15 15 17 21 21 21 22 24 24 25 25 25 24 20 20 19 22 22 23 23 24 21 21 21 20 21 20 19 19 20 20 21 22 23 23 23 23 23 23 24
12 16 15 14 20 23 23 20 21 19 20 19 19 19 19 19 19 24 25 25 24 22 19 19 19 22 22 23 21 23 23 20 19 18 19 18 18 18 19 19 20 21 22 23 23 22 23 24 24
17 17 16 16 17 19 19 20 20 20 19 19 19 19 19 19 18 22 24 25 24 21 17 19 19 20 21 20 19 20 21 21 18 19 17 17 16 17 18 19 19 19 20 21 22 22 23 23 24
16 14 13 14 17 18 18 20 21 21 20 20 20 20 20 18 18 23 23 25 24 20 17 18 19 19 20 21 19 18 20 22 19 19 17 18 17 18 17 17 18 18 19 21 21 22 22 23 24
19 18 15 14 17 20 19 19 20 21 21 21 21 20 19 18 18 22 22 24 23 19 17 16 18 19 19 20 19 17 17 18 17 18 18 19 19 20 19 17 17 18 19 21 21 21 21 20 21
13 16 18 18 17 16 19 11 12 14 13 15 15 16 16 17 20 22 21 23 22 19 17 16 18 18 19 19 19 14 14 13 14 16 20 20 19 18 17 17 17 18 19 19 21 21 20 21 20
17 21 20 21 20 21 18 15 12 14 13 13 12 13 17 17 20 21 20 22 22 20 18 17 17 17 17 17 18 16 14 12 13 18 18 17 18 18 16 17 17 17 18 19 19 19 20 21 20
21 19 19 18 18 13 14 12 9 11 12 13 13 11 13 22 22 21 20 21 21 21 19 19 17 17 17 18 19 17 15 13 12 13 14 16 17 16 15 15 16 16 15 15 18 18 18 19 19
21 19 12 12 14 8 12 10 10 13 11 9 8 5 11 23 22 21 19 20 20 20 20 20 18 16 17 19 18 18 17 14 12 12 14 14 12 11 11 12 13 13 13 14 14 15 16 16 17
20 18 13 6 2 3 15 11 11 13 12 11 10 9 19 22 23 22 20 20 19 20 20 20 20 16 17 19 19 18 18 17 15 15 15 12 10 9 9 9 10 11 12 12 13 13 15 15 16
20 18 20 17 18 15 10 10 12 13 12 12 11 13 17 22 23 24 23 21 20 20 20 20 19 18 17 18 18 17 17 17 15 14 11 9 8 7 7 8 8 9 10 11 12 13 14 15 16
18 19 16 19 9 7 5 7 9 12 12 14 15 14 16 20 23 23 24 22 21 20 20 20 20 20 18 18 17 16 16 15 13 10 8 6 6 3 4 6 8 9 10 10 11 12 14 14 15
16 16 16 14 17 8 6 7 11 11 9 14 15 17 18 21 20 21 23 23 21 20 20 20 21 20 19 17 17 15 15 13 10 8 7 5 5 6 7 8 8 8 9 10 10 10 11 11 12
15 14 13 10 8 11 10 10 11 12 12 9 9 10 11 16 22 22 21 22 21 19 19 19 20 20 20 17 17 15 13 10 7 5 5 5 5 7 7 7 8 8 8 8 8 8 9 9 8
Wind_Speed
6 8 9 4 3 7 10 5 5 6 0 4 8 5 2 5 2 3 7 7 12 8 14 12 11 11 11 10 13 12 12 13 12 15 15 14 14 14 13 14 14 13 13 13 13 13 14 15 13
8 5 4 6 4 9 4 11 5 6 7 7 7 6 2 1 7 10 10 8 12 8 14 11 10 12 12 12 12 11 10 8 9 9 11 12 8 8 10 12 12 12 12 12 13 13 14 15 15
7 4 3 4 7 14 5 4 9 11 8 5 2 2 6 3 10 16 13 13 12 9 13 9 11 12 13 13 12 11 12 11 10 12 11 10 11 12 12 11 11 12 13 13 12 13 13 13 13
4 4 6 5 15 8 5 4 16 11 3 2 1 3 4 3 4 14 15 13 13 10 12 8 10 11 11 12 12 12 12 12 12 12 12 11 11 12 12 11 11 12 13 13 13 13 14 14 14
3 6 7 10 15 1 6 4 9 12 9 10 6 4 3 6 14 18 16 13 14 12 13 9 9 10 11 11 11 11 11 11 11 11 11 11 12 11 12 13 13 13 13 13 13 14 15 15 14
5 4 7 13 11 5 4 5 6 10 11 8 8 9 3 15 15 15 13 12 13 14 13 11 9 10 11 10 10 10 11 11 11 10 11 11 12 12 12 14 14 14 14 14 14 14 14 15 15
4 4 12 18 14 8 4 9 9 11 11 12 4 4 5 14 15 16 14 12 13 14 12 14 12 11 11 10 9 9 10 10 10 10 9 10 11 11 12 13 13 14 16 15 16 16 17 16 15
4 4 8 11 8 7 5 6 2 9 9 4 9 6 5 15 19 16 13 13 11 14 12 12 13 13 12 10 9 10 10 11 10 9 6 3 6 9 11 12 12 13 15 13 15 15 16 16 16
2 4 11 14 2 2 6 5 7 1 4 5 9 2 5 22 20 16 14 14 14 14 14 13 13 11 14 13 10 12 12 10 8 7 4 4 9 8 7 7 10 11 14 12 15 15 15 17 18
5 6 6 3 6 6 2 9 8 5 9 11 9 8 12 20 21 20 21 21 20 18 15 15 14 14 13 12 13 12 10 7 8 7 7 5 6 3 5 7 11 12 15 15 16 17 17 15 14
5 6 8 6 6 6 8 11 9 11 15 17 20 22 23 22 22 23 22 21 23 19 17 16 16 14 13 10 11 9 8 8 8 7 5 4 6 5 6 8 9 11 14 14 15 14 13 16 15
7 16 19 6 1 3 8 5 10 18 24 4 2 3 25 27 27 28 26 24 23 24 22 20 18 17 16 13 12 10 10 8 8 7 4 4 6 6 7 8 9 10 11 13 14 14 14 15 16
15 17 15 11 8 9 12 18 13 21 19 24 23 10 20 24 26 24 24 22 22 25 24 23 19 18 16 14 12 12 11 9 10 9 5 5 7 5 5 7 8 9 11 12 13 13 14 14 15
8 12 18 13 16 11 11 14 11 16 22 26 22 20 21 25 28 22 24 26 27 23 24 23 22 19 17 16 15 14 13 12 10 10 8 5 7 5 6 7 7 9 10 10 10 12 12 13 13
6 16 18 22 19 12 4 18 22 31 13 15 17 22 24 27 23 30 29 28 26 23 23 25 22 21 20 18 16 15 14 13 12 11 9 7 6 6 5 5 5 6 7 6 8 9 11 14 13
5 9 8 8 16 9 12 25 15 24 22 27 22 20 21 23 29 25 22 23 22 20 25 23 20 20 20 17 16 15 14 13 12 12 10 8 7 6 4 3 4 6 6 7 8 10 12 14 14
15 13 17 21 18 10 17 17 18 4 4 15 19 23 26 25 29 27 26 22 24 22 23 24 23 23 21 18 16 15 15 13 12 12 10 10 8 6 4 3 3 5 4 5 7 8 11 15 14
13 14 20 24 9 14 16 29 24 23 19 26 28 27 26 27 27 27 27 26 27 25 23 23 21 20 19 17 15 14 15 12 13 12 10 11 8 6 4 4 4 4 4 5 6 10 11 13 16
26 26 27 34 22 19 29 31 26 22 27 27 29 30 25 27 20 25 29 26 26 26 26 25 24 21 20 20 20 17 18 15 14 13 13 11 9 7 6 5 5 3 3 4 6 9 12 12 12
21 25 32 29 24 15 22 26 25 21 29 34 30 32 27 15 12 21 26 25 26 27 25 25 24 24 22 18 16 9 16 12 14 13 13 12 11 8 7 7 4 1 1 4 6 8 8 7 7
22 21 25 29 21 11 17 18 23 18 30 28 29 34 20 18 18 22 23 25 25 27 29 28 27 25 24 20 18 10 12 15 10 16 15 13 11 9 7 7 5 1 2 5 5 8 9 10 10
34 17 20 22 18 15 4 36 17 14 25 23 30 32 17 19 17 22 24 25 26 24 23 25 25 25 24 23 22 23 21 19 12 16 14 16 14 11 9 7 4 2 3 5 6 6 7 6 11
11 1 6 9 15 15 12 22 10 14 21 25 28 31 17 16 26 22 26 27 23 23 25 24 23 25 25 25 25 24 19 14 14 17 21 15 12 12 10 8 6 4 4 4 5 8 10 8 9
4 3 7 6 5 24 18 22 17 12 16 15 24 27 24 14 19 20 21 23 23 22 23 24 26 25 24 24 22 25 25 22 24 21 19 16 13 13 12 10 8 7 5 5 5 6 9 10 11
7 5 9 9 11 38 11 23 29 10 14 18 23 24 16 21 22 22 25 27 25 27 26 24 26 26 23 24 24 24 24 25 27 25 21 20 17 13 12 11 10 7 4 2 4 7 10 9 11
16 14 15 16 28 41 5 20 18 17 22 22 27 26 14 18 19 23 24 25 24 26 27 26 28 27 25 26 26 23 22 23 21 22 21 20 19 15 13 12 8 5 3 3 4 7 9 9 11
8 14 8 15 15 16 26 29 25 26 27 26 24 14 14 16 19 22 22 24 24 25 30 31 29 28 27 27 24 24 22 22 23 23 20 19 16 14 13 11 8 5 4 4 5 7 9 9 10
7 2 6 8 10 21 34 29 31 25 31 20 12 13 11 15 16 19 22 23 22 23 24 26 25 28 26 24 24 23 22 20 21 22 23 20 16 14 13 9 6 4 4 4 5 7 7 9 9
9 11 9 3 13 21 27 32 3 7 5 11 14 7 6 12 19 23 23 23 24 22 25 25 26 26 28 26 23 23 22 23 23 22 22 21 17 16 13 10 8 6 5 5 6 7 7 10 11
13 20 23 25 30 12 27 47 6 7 11 17 13 10 10 15 18 19 24 25 25 26 24 28 26 27 26 24 24 23 22 23 23 21 21 19 17 14 12 10 7 6 6 6 8 8 8 12 13
Wind_Direction
290 241 272 282 264 225 260 156 47 115 135 56 315 78 340 0 304 217 132 114 102 111 115 80 82 82 77 78 74 65 64 58 61 70 68 63 51 49 48 48 40 33 30 27 24 27 22 14 9
311 293 256 280 251 263 314 105 151 165 80 82 16 33 16 26 93 125 138 161 113 117 87 87 88 92 94 96 87 81 87 96 79 79 76 65 60 59 49 45 38 32 26 22 14 17 16 12 4
293 284 275 220 247 265 25 122 148 90 98 129 168 52 333 84 102 141 115 140 131 114 104 93 100 99 95 93 90 91 92 88 86 83 76 74 70 65 59 53 44 34 28 24 18 16 14 14 7
313 206 258 258 268 300 28 77 116 116 118 307 232 201 95 75 125 130 137 154 129 118 104 90 100 97 98 97 98 96 96 93 92 86 79 72 69 62 59 51 40 33 29 20 20 14 8 3 5
239 265 260 236 257 237 103 339 132 167 168 181 183 204 197 166 105 127 145 152 141 123 114 96 111 116 112 107 105 100 95 92 91 87 81 73 63 55 49 41 34 30 25 20 16 7 360 355 353
268 240 272 267 320 120 115 167 193 196 186 119 183 264 178 144 147 151 155 157 151 130 119 122 107 111 109 108 109 108 105 99 92 84 79 71 66 58 47 40 34 30 23 20 15 8 1 352 345
260 290 269 283 306 303 177 137 214 217 215 184 153 242 140 165 165 158 164 155 149 140 153 152 138 117 107 105 110 113 108 100 93 88 84 78 67 59 49 37 29 25 18 12 8 3 358 351 344
308 282 274 279 278 324 115 151 92 253 240 29 143 224 219 186 160 154 169 161 160 157 167 160 141 149 134 118 121 126 121 115 106 101 99 117 85 56 57 32 24 25 16 13 7 2 355 350 341
239 255 267 278 276 299 126 215 164 152 248 200 188 280 107 142 144 161 176 180 183 176 181 167 165 168 146 141 142 136 134 134 132 121 71 64 65 38 65 42 30 29 19 18 9 5 356 2 354
226 243 267 8 328 289 250 206 239 205 234 239 217 156 132 149 161 180 188 196 197 190 192 176 174 174 166 160 165 161 162 142 109 90 78 59 83 56 46 39 35 19 26 18 12 6 4 355 345
229 238 280 297 296 312 273 269 221 252 254 236 225 215 175 172 184 195 201 202 199 192 186 187 180 181 175 167 159 157 144 134 115 99 98 88 84 47 42 40 29 23 23 17 9 2 356 350 345
262 247 255 285 241 253 248 257 256 234 233 271 325 250 176 185 193 202 206 206 197 193 189 184 182 178 179 162 166 164 147 145 135 119 106 111 93 64 50 45 35 30 25 17 7 357 352 343 337
246 267 278 268 237 238 270 260 255 255 250 242 249 211 185 196 205 208 208 206 200 194 188 180 181 178 176 163 180 162 150 155 138 132 104 95 102 79 64 53 41 32 28 17 358 348 340 334 325
348 300 287 282 243 222 238 265 249 251 241 245 248 220 212 206 209 209 208 209 202 192 186 171 179 175 168 177 172 162 161 150 152 142 128 105 107 89 65 55 39 37 29 1 343 335 330 323 320
289 294 285 262 238 236 210 271 234 248 247 239 240 237 221 217 215 212 211 207 201 194 175 173 173 174 172 181 169 162 154 158 153 138 136 131 103 93 73 72 60 50 20 357 341 336 333 322 322
249 255 274 271 225 169 152 257 249 249 234 239 229 242 244 229 222 221 215 205 201 187 176 169 173 177 172 176 166 159 156 156 150 147 153 141 127 115 112 102 74 41 16 354 346 333 329 322 317
238 253 248 272 187 151 187 255 267 240 258 264 241 237 241 242 223 213 203 197 192 184 173 171 172 173 171 168 166 158 159 158 155 155 155 151 141 137 141 123 81 46 14 350 337 331 326 317 316
264 254 282 283 211 202 219 246 254 271 267 261 266 260 250 246 239 206 194 190 182 178 171 168 168 168 169 164 160 150 155 163 157 163 161 150 151 153 148 112 75 55 13 347 343 323 308 303 305
256 265 266 272 273 218 239 246 254 253 270 267 264 266 261 259 255 206 185 182 174 169 169 167 168 172 170 167 164 165 176 176 168 172 159 158 160 164 150 112 78 46 4 319 309 295 298 311 316
273 275 273 275 282 218 254 260 265 259 261 262 266 267 268 250 242 169 172 177 174 168 168 169 174 177 179 173 172 172 170 188 173 167 165 173 165 170 146 127 126 149 298 303 301 300 314 302 325
249 251 262 267 282 239 268 270 260 255 256 263 264 261 253 236 229 176 173 178 169 171 174 177 178 180 180 172 169 140 129 141 152 169 172 174 166 159 159 148 155 176 294 285 295 312 305 300 311
267 252 262 272 273 259 69 290 252 255 269 253 261 269 250 227 206 181 178 176 174 179 177 180 181 182 182 175 173 170 173 169 190 182 176 171 168 172 165 157 154 184 235 272 282 281 283 286 282
259 232 269 273 267 290 257 274 266 221 253 248 251 262 263 238 192 181 181 177 178 178 181 185 185 187 185 185 177 177 185 181 170 167 161 163 171 174 166 163 162 187 222 246 280 289 278 272 282
126 301 270 258 252 264 232 234 281 222 236 233 240 253 256 187 179 185 179 171 179 179 181 187 191 193 188 184 181 182 183 179 160 162 169 176 181 177 173 166 166 185 207 247 254 277 285 283 279
189 166 269 262 236 265 209 246 250 240 183 205 225 238 240 177 177 180 177 179 181 186 187 187 192 197 190 184 188 190 184 180 175 173 175 177 177 178 176 164 170 174 178 239 271 274 274 278 275
188 193 219 257 264 278 229 257 262 232 243 238 227 237 177 175 177 188 187 188 190 186 188 189 196 197 191 188 192 191 189 185 182 177 177 180 179 170 158 155 159 163 184 230 253 262 265 269 271
184 206 223 253 276 287 274 273 274 241 237 242 231 186 178 181 189 192 192 192 191 192 193 195 196 199 195 194 190 192 192 184 179 175 170 174 166 161 158 158 156 168 203 229 248 257 264 272 280
202 201 181 196 240 250 274 287 274 274 264 243 200 213 216 206 197 201 200 197 198 199 196 198 200 201 197 193 192 190 187 182 173 168 172 172 168 164 159 155 163 184 207 231 256 263 270 275 277
199 231 223 245 216 242 263 273 12 151 147 169 208 215 220 206 209 210 207 206 198 196 195 198 198 197 198 190 188 187 184 177 170 174 173 172 168 164 159 164 179 199 223 240 253 262 277 276 274
230 225 213 226 242 234 241 258 166 327 150 127 144 185 236 220 208 212 216 206 201 200 194 197 198 200 198 186 183 186 177 173 172 174 172 167 165 157 159 164 180 205 229 241 248 261 261 263 267